"startDT [UTC]","vpos","CH4 [ppm]","stdev(CH4) [ppm]","CO2 [ppm]","stdev(CO2) [ppm]","H2O_reported [%]","stdev(H2O_reported)","CavityPressure [torr]","CavityTemp [C]","OutletValve","CH4_dry [ppm]","CO2_dry [ppm]","DasTemp [C]","EtalonTemp [C]","WarmBoxTemp [C]","MPVPosition","T_ECpre [C]","T_EC1 [C]","T_EC2 [C]","p_inlet [hPa]","p_in [hPa]","p_out [hPa]","T_inlet [C]","RH_inlet [%]","dwpt_inlet [C]","T_vent [C]","RH_vent [%]","dwpt_vent [C]","flow_vent [l min-1]","flow_inlet [l min-1]","dwpt_sample [C]","T_room [C]"
2015-09-20 00:00:00,0.0,1.96321,0.00129,396.577,0.095,0.7014,0.0028,140.001,45.000,31667.00521,1.97690,399.990,36.936,45.067,45.000,0.00,0.09,-272.74,-272.81,-9,514,-943,21.0,21.8,-1.7,21.2,22.0,-1.4,5.73,1.76,-0.8,27.9
2015-09-20 00:01:00,0.0,1.96585,0.00057,396.783,0.059,0.7051,0.0023,139.999,45.000,31666.03623,1.97984,400.223,36.937,45.067,45.000,0.00,0.09,-272.75,-272.79,-9,515,-943,21.0,21.9,-1.6,21.2,22.2,-1.2,5.73,2.03,-0.8,27.9
2015-09-20 00:02:00,0.0,1.96375,0.00278,396.613,0.198,0.7010,0.0051,140.001,45.000,31666.73650,1.97761,400.035,36.939,45.067,45.000,0.00,0.09,-272.74,-272.81,-8,515,-943,21.0,21.8,-1.6,21.2,22.2,-1.2,5.73,2.02,-0.8,27.9
2015-09-20 00:03:00,0.0,1.96176,0.00216,396.467,0.171,0.6963,0.0035,139.998,45.000,31665.47588,1.97572,399.865,36.938,45.067,45.000,0.00,0.09,-272.75,-272.81,-9,514,-943,21.0,21.6,-1.8,21.2,22.0,-1.4,5.73,1.77,-0.9,27.9
2015-09-20 00:04:00,0.0,1.96377,0.00220,396.612,0.114,0.6938,0.0028,139.999,45.000,31666.29058,1.97737,399.989,36.955,45.067,45.000,0.00,0.09,-272.74,-272.80,-9,515,-943,21.0,21.5,-1.9,21.2,21.9,-1.4,5.73,2.14,-0.8,27.9
2015-09-20 00:05:00,0.0,1.96253,0.00090,396.593,0.057,0.6895,0.0029,140.000,45.000,31667.13877,1.97609,399.955,36.973,45.067,45.000,0.00,0.09,-272.73,-272.80,-8,515,-943,21.0,21.4,-1.9,21.2,21.8,-1.5,5.73,1.85,-0.8,27.9
2015-09-20 00:06:00,0.0,1.96442,0.00125,396.585,0.054,0.6890,0.0019,139.999,45.000,31663.27164,1.97802,399.941,36.995,45.067,45.000,0.00,0.09,-272.75,-272.81,-9,515,-943,21.0,21.4,-1.9,21.2,21.7,-1.5,5.73,1.90,-0.8,27.9
2015-09-20 00:07:00,0.0,1.96258,0.00165,396.412,0.134,0.6847,0.0028,140.001,45.000,31664.95925,1.97610,399.749,37.000,45.067,45.000,0.00,0.09,-272.75,-272.81,-10,515,-943,21.0,21.3,-2.0,21.2,21.7,-1.6,5.73,2.12,-0.8,27.9
2015-09-20 00:08:00,0.0,1.96369,0.00201,396.465,0.132,0.6852,0.0042,140.001,45.000,31666.06093,1.97728,399.805,37.000,45.067,45.000,0.00,0.09,-272.73,-272.80,-8,515,-943,21.0,21.2,-2.0,21.2,21.6,-1.6,5.73,1.75,-0.8,27.9
2015-09-20 00:09:00,0.0,1.96365,0.00119,396.437,0.077,0.6838,0.0040,140.000,45.000,31666.19883,1.97706,399.766,37.000,45.067,45.000,0.00,0.09,-272.75,-272.80,-8,514,-943,21.0,21.3,-2.0,21.2,21.6,-1.6,5.73,2.07,-0.8,27.9
2015-09-20 00:10:00,0.0,1.96998,0.00245,396.595,0.072,0.6982,0.0101,139.999,45.000,31664.99560,1.98336,399.990,36.999,45.067,45.000,0.00,0.09,-272.75,-272.81,-9,515,-943,21.0,21.7,-1.7,21.2,21.8,-1.5,5.73,1.96,-0.9,27.9
2015-09-20 00:11:00,0.0,1.98261,0.00143,396.861,0.061,0.7150,0.0022,139.999,45.000,31665.47618,1.99664,400.347,37.000,45.067,45.000,0.00,0.09,-272.74,-272.80,-8,515,-943,21.0,22.2,-1.4,21.2,22.4,-1.1,5.73,1.80,-0.8,27.9
2015-09-20 00:12:00,0.0,1.98230,0.00116,396.809,0.092,0.7173,0.0028,140.001,45.000,31666.83896,1.99664,400.311,37.000,45.067,45.000,0.00,0.09,-272.74,-272.80,-8,515,-943,21.0,22.3,-1.3,21.2,22.6,-1.0,5.73,2.14,-0.8,27.9
2015-09-20 00:13:00,0.0,1.98461,0.00057,396.872,0.050,0.7163,0.0022,139.998,45.000,31664.79303,1.99889,400.369,36.998,45.067,45.000,0.00,0.09,-272.74,-272.81,-10,515,-943,21.0,22.3,-1.4,21.2,22.6,-1.0,5.73,1.81,-0.9,27.9
2015-09-20 00:14:00,0.0,1.98165,0.00172,396.703,0.090,0.7234,0.0071,140.001,45.000,31664.93493,1.99625,400.236,37.001,45.067,45.000,0.00,0.09,-272.75,-272.80,-9,515,-943,21.0,22.5,-1.2,21.2,22.7,-1.0,5.73,1.95,-0.9,27.9
2015-09-20 00:15:00,0.0,1.97235,0.00204,396.458,0.088,0.7133,0.0094,140.001,45.000,31667.40051,1.98674,399.940,37.000,45.067,45.000,0.00,0.09,-272.74,-272.80,-8,515,-943,21.0,22.1,-1.4,21.2,22.7,-1.0,5.73,2.08,-0.9,27.9
2015-09-20 00:16:00,0.0,1.97361,0.00069,396.465,0.065,0.7151,0.0067,140.000,45.000,31668.07538,1.98777,399.950,37.004,45.067,45.000,0.00,0.09,-272.74,-272.81,-10,515,-943,21.0,22.2,-1.4,21.2,22.5,-1.1,5.73,1.75,-0.9,27.9
2015-09-20 00:17:00,0.0,1.97149,0.00256,396.384,0.140,0.7106,0.0020,140.001,45.001,31667.47225,1.98566,399.851,37.000,45.067,45.000,0.00,0.09,-272.75,-272.80,-9,515,-943,21.0,22.1,-1.5,21.2,22.5,-1.1,5.73,2.11,-0.9,27.9
2015-09-20 00:18:00,0.0,1.97576,0.00272,396.471,0.094,0.7216,0.0075,140.002,45.000,31668.49219,1.99025,399.992,37.001,45.067,45.000,0.00,0.09,-272.73,-272.80,-8,514,-943,21.0,22.4,-1.3,21.2,22.6,-1.0,5.73,1.90,-0.9,27.9
2015-09-20 00:19:00,0.0,1.96626,0.00485,396.050,0.208,0.7179,0.0058,139.998,45.000,31667.14822,1.98061,399.552,37.018,45.067,45.000,0.00,0.09,-272.75,-272.80,-10,514,-943,21.0,22.3,-1.3,21.2,22.7,-1.0,5.73,1.85,-0.9,27.9
2015-09-20 00:20:00,0.0,1.97003,0.00570,396.196,0.244,0.7209,0.0037,140.002,45.000,31667.62945,1.98409,399.705,37.063,45.067,45.000,0.00,0.09,-272.75,-272.81,-9,515,-943,21.0,22.4,-1.3,21.2,22.7,-1.0,5.73,2.13,-0.9,27.9
2015-09-20 00:21:00,0.0,1.96821,0.00325,396.061,0.116,0.7221,0.0044,139.999,45.000,31668.05895,1.98261,399.580,37.060,45.067,45.000,0.00,0.09,-272.74,-272.80,-8,515,-943,21.0,22.4,-1.3,21.2,22.8,-0.9,5.73,1.76,-0.9,27.9
2015-09-20 00:22:00,0.0,1.96611,0.00304,395.973,0.130,0.7233,0.0057,140.002,45.000,31669.18854,1.98046,399.498,37.061,45.067,45.000,0.00,0.09,-272.74,-272.80,-10,515,-943,21.0,22.5,-1.2,21.2,22.8,-0.9,5.73,2.04,-0.8,27.9
2015-09-20 00:23:00,0.0,1.96592,0.00146,395.926,0.088,0.7279,0.0078,139.998,45.000,31667.82873,1.98043,399.474,37.062,45.067,45.000,0.00,0.09,-272.75,-272.81,-9,515,-943,21.0,22.6,-1.2,21.2,22.8,-0.9,5.73,1.99,-0.9,27.9
2015-09-20 00:24:00,0.0,1.97134,0.00949,396.190,0.415,0.7227,0.0068,140.003,45.000,31668.69782,1.98489,399.694,37.043,45.067,45.000,0.00,0.09,-272.74,-272.80,-8,515,-943,21.0,22.5,-1.3,21.2,22.7,-0.9,5.73,1.78,-0.9,27.9
2015-09-20 00:25:00,0.0,1.98348,0.00368,396.614,0.153,0.7409,0.0044,140.000,45.000,31667.83573,1.99862,400.240,37.032,45.067,45.000,0.00,0.09,-272.74,-272.79,-9,515,-943,21.0,23.0,-0.9,21.2,23.2,-0.6,5.73,2.15,-0.8,27.9
2015-09-20 00:26:00,0.0,1.97426,0.00217,396.255,0.100,0.7302,0.0043,140.000,45.000,31667.77067,1.98880,399.816,37.016,45.067,45.000,0.00,0.09,-272.74,-272.81,-9,515,-943,21.0,22.7,-1.1,21.2,23.1,-0.7,5.73,1.81,-0.9,27.9
2015-09-20 00:27:00,0.0,1.97740,0.00167,396.229,0.073,0.7367,0.0034,139.999,45.000,31667.43907,1.99195,399.820,37.013,45.067,45.000,0.00,0.09,-272.75,-272.81,-8,515,-943,21.0,22.9,-1.0,21.2,23.1,-0.7,5.73,1.96,-0.9,27.9
2015-09-20 00:28:00,0.0,1.97682,0.00251,396.144,0.124,0.7413,0.0051,140.001,45.000,31667.70573,1.99192,399.764,37.002,45.068,45.000,0.00,0.09,-272.74,-272.80,-9,515,-943,21.1,23.0,-0.9,21.2,23.3,-0.6,5.73,2.07,-0.9,27.9
2015-09-20 00:29:00,0.0,1.96872,0.00169,395.831,0.089,0.7309,0.0032,139.999,45.000,31667.37109,1.98336,399.397,37.000,45.067,45.000,0.00,0.09,-272.74,-272.80,-9,515,-943,21.1,22.7,-1.1,21.2,23.1,-0.7,5.73,1.75,-0.9,27.9
2015-09-20 00:30:00,0.0,1.97160,0.00370,395.845,0.114,0.7366,0.0111,139.999,45.000,31666.86916,1.98593,399.431,37.004,45.068,45.000,0.00,0.09,-272.75,-272.80,-8,515,-943,21.1,22.9,-1.0,21.3,23.0,-0.7,5.73,2.12,-0.9,27.9
2015-09-20 00:31:00,0.0,1.96986,0.00305,395.729,0.129,0.7439,0.0104,140.001,45.000,31667.46960,1.98473,399.352,37.014,45.068,45.000,0.00,0.09,-272.74,-272.81,-9,515,-943,21.1,23.0,-0.8,21.2,23.4,-0.5,5.73,1.87,-0.8,27.9
2015-09-20 00:32:00,0.0,1.97224,0.00329,395.836,0.116,0.7368,0.0067,140.001,45.000,31667.34373,1.98689,399.427,37.007,45.067,45.000,0.00,0.09,-272.74,-272.80,-9,515,-943,21.1,22.9,-0.9,21.2,23.2,-0.6,5.73,1.89,-0.9,27.9
2015-09-20 00:33:00,0.0,1.97624,0.00487,396.057,0.194,0.7444,0.0052,139.999,45.000,31666.47349,1.99109,399.684,37.023,45.067,45.000,0.00,0.09,-272.75,-272.81,-8,515,-943,21.1,23.1,-0.8,21.2,23.4,-0.5,5.73,2.11,-0.8,27.9
2015-09-20 00:34:00,0.0,1.97675,0.00554,396.089,0.187,0.7413,0.0078,140.001,45.000,31667.31624,1.99098,399.693,37.041,45.067,45.000,0.00,0.09,-272.74,-272.81,-9,515,-943,21.0,23.0,-0.9,21.2,23.3,-0.6,5.73,1.75,-0.8,27.9
2015-09-20 00:35:00,0.0,1.99164,0.00376,396.761,0.211,0.7664,0.0034,140.001,45.000,31667.79160,2.00708,400.508,37.063,45.067,45.000,0.00,0.09,-272.74,-272.80,-9,515,-943,21.1,23.8,-0.4,21.2,23.9,-0.2,5.73,2.08,-0.8,27.9
2015-09-20 00:36:00,0.0,1.98315,0.00945,396.296,0.442,0.7648,0.0073,139.997,45.000,31666.99893,1.99893,400.041,37.063,45.067,45.000,0.00,0.09,-272.73,-272.81,-8,515,-943,21.1,23.7,-0.4,21.2,24.0,-0.1,5.73,1.94,-0.9,27.9
2015-09-20 00:37:00,0.0,1.96159,0.00264,395.392,0.131,0.7381,0.0091,139.997,45.000,31666.61075,1.97648,398.994,37.063,45.067,45.000,0.00,0.09,-272.75,-272.81,-9,515,-943,21.1,22.9,-0.9,21.2,23.5,-0.5,5.73,1.82,-0.9,28.0
2015-09-20 00:38:00,0.0,1.98289,0.01221,396.409,0.690,0.7515,0.0161,139.999,45.000,31668.37915,1.99663,400.039,37.065,45.067,45.000,0.00,0.09,-272.74,-272.80,-9,515,-943,21.0,23.4,-0.7,21.2,23.4,-0.5,5.73,2.14,-0.9,27.9
2015-09-20 00:39:00,0.0,1.99417,0.00361,397.083,0.211,0.7673,0.0037,140.001,45.000,31669.09821,2.00994,400.848,37.062,45.067,45.000,0.00,0.09,-272.74,-272.80,-8,515,-943,21.1,23.8,-0.4,21.3,24.1,-0.1,5.73,1.77,-0.9,27.9
2015-09-20 00:40:00,0.0,1.98716,0.00175,396.632,0.145,0.7600,0.0030,139.999,45.000,31668.33590,2.00248,400.350,37.055,45.067,45.000,0.00,0.09,-272.75,-272.80,-9,515,-943,21.0,23.6,-0.6,21.3,23.9,-0.2,5.73,2.03,-0.8,27.9
2015-09-20 00:41:00,0.0,1.98810,0.00346,396.606,0.184,0.7584,0.0051,140.002,45.000,31669.84464,2.00307,400.303,37.052,45.067,45.000,0.00,0.09,-272.74,-272.81,-9,515,-943,21.1,23.5,-0.6,21.3,23.8,-0.3,5.73,2.00,-0.8,27.9
2015-09-20 00:42:00,0.0,1.98501,0.00310,396.558,0.128,0.7643,0.0037,140.001,45.000,31668.23600,2.00058,400.300,37.060,45.067,45.000,0.00,0.09,-272.74,-272.80,-8,515,-943,21.1,23.7,-0.5,21.3,23.9,-0.2,5.73,1.78,-0.8,27.9
2015-09-20 00:43:00,0.0,1.98142,0.00340,396.371,0.162,0.7566,0.0034,140.000,45.000,31669.77207,1.99665,400.067,37.056,45.067,45.000,0.00,0.09,-272.74,-272.80,-9,515,-943,21.1,23.5,-0.6,21.3,23.8,-0.2,5.73,2.14,-0.9,28.0
2015-09-20 00:44:00,0.0,1.97802,0.00144,396.214,0.072,0.7525,0.0024,140.002,45.000,31671.10737,1.99303,399.886,37.060,45.067,45.000,0.00,0.09,-272.74,-272.81,-9,515,-943,21.1,23.3,-0.7,21.3,23.7,-0.3,5.73,1.79,-0.9,28.0
2015-09-20 00:45:00,0.0,1.97993,0.00195,396.271,0.124,0.7579,0.0017,139.999,45.000,31671.53657,1.99490,399.966,37.061,45.067,45.000,0.00,0.09,-272.75,-272.80,-8,515,-943,21.0,23.5,-0.6,21.2,23.8,-0.3,5.73,1.98,-0.8,27.9
2015-09-20 00:46:00,0.0,1.99492,0.00825,396.927,0.420,0.7663,0.0066,140.001,45.000,31671.43280,2.00944,400.648,37.050,45.067,45.000,0.00,0.09,-272.74,-272.80,-9,515,-943,21.1,23.8,-0.4,21.3,23.9,-0.2,5.73,2.04,-0.9,28.0
2015-09-20 00:47:00,0.0,1.99421,0.00956,396.948,0.509,0.7681,0.0077,140.000,45.000,31669.49796,2.01004,400.716,37.061,45.067,45.000,0.00,0.09,-272.75,-272.81,-9,515,-943,21.1,23.8,-0.4,21.3,24.2,-0.0,5.73,1.76,-0.8,28.0
2015-09-20 00:48:00,0.0,1.99464,0.00226,396.855,0.106,0.7626,0.0025,140.000,45.000,31669.75500,2.01033,400.596,37.063,45.067,45.000,0.00,0.09,-272.75,-272.80,-8,515,-943,21.0,23.6,-0.5,21.3,24.0,-0.2,5.73,2.13,-0.8,28.0
2015-09-20 00:49:00,0.0,1.99634,0.00408,396.997,0.232,0.7658,0.0039,139.999,45.000,31670.02615,2.01162,400.736,37.064,45.067,45.000,0.00,0.09,-272.74,-272.81,-9,515,-943,21.1,23.7,-0.5,21.3,24.0,-0.1,5.73,1.84,-0.8,27.9
2015-09-20 00:50:00,0.0,1.98969,0.00131,396.704,0.101,0.7617,0.0019,139.999,45.000,31668.09516,2.00502,400.428,37.070,45.067,45.000,0.00,0.09,-272.75,-272.81,-9,515,-943,21.1,23.6,-0.5,21.2,23.9,-0.2,5.73,1.93,-0.9,28.0
2015-09-20 00:51:00,0.0,1.98581,0.00242,396.513,0.151,0.7602,0.0023,139.998,45.000,31669.44564,2.00135,400.236,37.091,45.067,45.000,0.00,0.09,-272.75,-272.80,-8,515,-943,21.1,23.5,-0.6,21.2,23.8,-0.2,5.73,2.09,-0.8,27.9
2015-09-20 00:52:00,0.0,1.99418,0.00355,397.018,0.235,0.7622,0.0023,140.000,45.000,31669.15882,2.00896,400.730,37.118,45.067,45.000,0.00,0.09,-272.74,-272.80,-9,515,-943,21.1,23.6,-0.5,21.3,23.9,-0.2,5.73,1.75,-0.8,28.0
2015-09-20 00:53:00,0.0,1.99746,0.00213,397.207,0.082,0.7654,0.0044,140.000,45.000,31669.83721,2.01293,400.953,37.114,45.067,45.000,0.00,0.09,-272.75,-272.80,-9,515,-943,21.1,23.7,-0.5,21.3,24.0,-0.1,5.73,2.12,-0.8,28.0
2015-09-20 00:54:00,0.0,1.99180,0.00206,397.174,0.088,0.7563,0.0028,140.001,45.000,31669.76702,2.00723,400.876,37.105,45.067,45.000,0.00,0.09,-272.75,-272.81,-8,515,-943,21.1,23.4,-0.6,21.3,23.8,-0.2,5.73,1.88,-0.8,28.0
2015-09-20 00:55:00,0.0,1.98318,0.00495,396.761,0.269,0.7531,0.0024,140.000,45.000,31669.92981,1.99853,400.449,37.084,45.067,45.000,0.00,0.09,-272.74,-272.80,-9,515,-943,21.1,23.2,-0.7,21.3,23.6,-0.3,5.73,1.88,-0.8,28.0
2015-09-20 00:56:00,0.0,1.98453,0.00314,396.756,0.126,0.7503,0.0032,139.998,45.000,31671.16883,1.99929,400.416,37.092,45.067,45.000,0.00,0.09,-272.74,-272.80,-9,515,-943,21.1,23.2,-0.7,21.3,23.6,-0.4,5.73,2.12,-0.8,28.0
2015-09-20 00:57:00,0.0,1.98396,0.00495,396.674,0.202,0.7534,0.0021,139.999,45.000,31669.66446,1.99883,400.351,37.070,45.067,45.000,0.00,0.09,-272.74,-272.81,-8,515,-943,21.1,23.2,-0.7,21.3,23.6,-0.3,5.73,1.74,-0.8,28.0
2015-09-20 00:58:00,0.0,1.99604,0.00152,397.069,0.063,0.7612,0.0043,140.001,45.000,31671.19696,2.01111,400.789,37.066,45.067,45.000,0.00,0.09,-272.74,-272.80,-9,515,-943,21.1,23.5,-0.6,21.3,23.8,-0.3,5.73,2.09,-0.8,28.0
2015-09-20 00:59:00,0.0,1.99821,0.00099,397.112,0.048,0.7629,0.0017,140.002,45.000,31670.57524,2.01353,400.843,37.080,45.068,45.000,0.00,0.09,-272.73,-272.80,-9,516,-943,21.1,23.6,-0.5,21.3,23.9,-0.2,5.73,1.92,-0.8,28.0
2015-09-20 01:00:00,0.0,2.00108,0.00204,397.111,0.103,0.7672,0.0027,140.001,45.000,31670.39948,2.01638,400.863,37.114,45.067,45.000,0.00,0.09,-272.74,-272.80,-8,515,-943,21.1,23.7,-0.4,21.3,24.0,-0.1,5.73,1.84,-0.8,28.0
2015-09-20 01:01:00,0.0,1.99351,0.00892,396.557,0.448,0.7705,0.0035,140.000,45.000,31670.06862,2.00969,400.341,37.092,45.067,45.000,0.00,0.09,-272.75,-272.80,-9,515,-943,21.1,23.9,-0.4,21.3,24.2,-0.0,5.73,2.13,-0.8,28.0
2015-09-20 01:02:00,0.0,1.97819,0.00557,395.828,0.150,0.7660,0.0042,139.997,45.000,31670.13328,1.99356,399.568,37.077,45.067,45.000,0.00,0.10,-272.74,-272.80,-9,515,-943,21.1,23.7,-0.4,21.3,24.1,-0.1,5.73,1.76,-0.8,28.0
2015-09-20 01:03:00,0.0,1.97998,0.00156,395.789,0.054,0.7683,0.0023,139.999,45.000,31668.68595,1.99535,399.538,37.073,45.067,45.000,0.00,0.09,-272.75,-272.80,-8,515,-943,21.1,23.7,-0.4,21.3,24.0,-0.1,5.73,2.06,-0.8,28.0
2015-09-20 01:04:00,0.0,1.98382,0.00257,395.715,0.049,0.7718,0.0016,139.996,45.000,31668.94708,1.99911,399.480,37.065,45.067,45.000,0.00,0.09,-272.75,-272.81,-9,515,-943,21.1,23.8,-0.4,21.3,24.1,-0.0,5.73,1.96,-0.8,28.0
2015-09-20 01:05:00,0.0,1.98399,0.00159,395.495,0.058,0.7703,0.0036,140.001,45.000,31669.71094,1.99944,399.252,37.063,45.067,45.000,0.00,0.09,-272.74,-272.80,-9,516,-943,21.1,23.8,-0.4,21.3,24.1,-0.1,5.73,1.81,-0.8,28.0
2015-09-20 01:06:00,0.0,1.97517,0.00468,395.502,0.049,0.7613,0.0065,140.002,45.000,31669.36107,1.99065,399.211,37.061,45.067,45.000,0.00,0.09,-272.74,-272.81,-8,515,-943,21.1,23.5,-0.5,21.3,23.9,-0.2,5.73,2.14,-0.8,28.0
2015-09-20 01:07:00,0.0,1.97716,0.00206,395.535,0.043,0.7596,0.0027,140.000,45.000,31668.47723,1.99227,399.236,37.063,45.067,45.000,0.00,0.09,-272.74,-272.81,-9,515,-943,21.1,23.4,-0.6,21.3,23.8,-0.2,5.73,1.77,-0.8,28.0
2015-09-20 01:08:00,0.0,1.97809,0.00274,395.457,0.093,0.7629,0.0044,140.001,45.000,31668.56848,1.99312,399.174,37.065,45.067,45.000,0.00,0.09,-272.75,-272.80,-9,515,-943,21.2,23.5,-0.5,21.3,23.8,-0.2,5.73,2.02,-0.8,28.0
2015-09-20 01:09:00,0.0,1.98249,0.00204,395.401,0.087,0.7651,0.0028,140.000,45.000,31669.96015,1.99760,399.128,37.057,45.067,45.000,0.00,0.09,-272.74,-272.80,-8,515,-943,21.1,23.6,-0.4,21.3,23.9,-0.1,5.73,2.00,-0.8,28.0
2015-09-20 01:10:00,0.0,1.98378,0.00305,395.387,0.042,0.7664,0.0042,140.000,45.000,31671.68179,1.99901,399.121,37.063,45.067,45.000,0.00,0.09,-272.75,-272.80,-9,515,-943,21.1,23.7,-0.4,21.3,23.9,-0.1,5.73,1.78,-0.8,28.0
2015-09-20 01:11:00,0.0,1.98062,0.00486,395.221,0.072,0.7737,0.0057,140.003,45.000,31674.99967,1.99662,398.993,37.063,45.067,45.000,0.00,0.09,-272.75,-272.81,-9,516,-943,21.2,23.8,-0.3,21.3,24.1,0.0,5.73,2.15,-0.8,28.0
2015-09-20 01:12:00,0.0,1.97381,0.00220,395.200,0.056,0.7579,0.0037,140.001,45.000,31675.78626,1.98879,398.889,37.063,45.067,45.000,0.00,0.09,-272.73,-272.81,-8,515,-943,21.1,23.4,-0.6,21.3,23.8,-0.2,5.73,1.80,-0.8,28.0
2015-09-20 01:13:00,0.0,1.97316,0.00185,395.136,0.037,0.7597,0.0033,140.003,45.000,31675.81009,1.98831,398.835,37.062,45.067,45.000,0.00,0.09,-272.74,-272.80,-9,515,-943,21.1,23.4,-0.6,21.3,23.7,-0.2,5.73,1.98,-0.8,28.0
2015-09-20 01:14:00,0.0,1.97687,0.00184,395.146,0.050,0.7631,0.0045,140.002,45.000,31674.71331,1.99194,398.861,37.063,45.067,45.000,0.00,0.09,-272.74,-272.81,-9,515,-943,21.1,23.5,-0.5,21.3,23.8,-0.3,5.73,2.04,-0.8,28.0
2015-09-20 01:15:00,0.0,1.97206,0.00339,395.083,0.040,0.7582,0.0060,139.998,45.000,31673.89990,1.98732,398.774,37.063,45.067,45.000,0.00,0.09,-272.74,-272.80,-8,515,-943,21.1,23.3,-0.6,21.3,23.7,-0.2,5.73,1.75,-0.8,28.0
2015-09-20 01:16:00,0.0,1.97173,0.00278,395.059,0.062,0.7560,0.0039,139.995,45.000,31674.41258,1.98691,398.740,37.065,45.067,45.000,0.00,0.09,-272.74,-272.80,-9,515,-943,21.1,23.3,-0.6,21.3,23.6,-0.3,5.73,2.14,-0.8,28.0
2015-09-20 01:17:00,0.0,1.97188,0.00360,395.003,0.053,0.7529,0.0047,139.999,45.000,31676.17861,1.98683,398.664,37.102,45.067,45.000,0.00,0.09,-272.75,-272.81,-9,516,-943,21.2,23.2,-0.7,21.3,23.5,-0.3,5.73,1.83,-0.8,28.0
2015-09-20 01:18:00,0.0,1.97294,0.00263,395.018,0.048,0.7540,0.0037,140.000,45.000,31677.28277,1.98776,398.686,37.124,45.067,45.000,0.00,0.09,-272.75,-272.80,-8,515,-943,21.1,23.3,-0.7,21.3,23.6,-0.3,5.73,1.93,-0.8,28.0
2015-09-20 01:19:00,0.0,1.97033,0.00253,394.938,0.030,0.7550,0.0037,140.000,45.000,31677.22031,1.98555,398.611,37.125,45.067,45.000,0.00,0.09,-272.74,-272.80,-9,515,-943,21.2,23.3,-0.6,21.3,23.6,-0.3,5.73,2.08,-0.8,28.0
2015-09-20 01:20:00,0.0,1.96990,0.00352,394.940,0.048,0.7527,0.0043,139.998,45.000,31677.43866,1.98466,398.599,37.117,45.067,45.000,0.00,0.09,-272.74,-272.81,-9,515,-943,21.1,23.2,-0.7,21.3,23.5,-0.3,5.73,1.75,-0.8,28.0
2015-09-20 01:21:00,0.0,1.96927,0.00184,394.934,0.043,0.7539,0.0049,140.000,45.000,31677.59882,1.98421,398.601,37.124,45.067,45.000,0.00,0.09,-272.75,-272.80,-8,515,-943,21.1,23.3,-0.7,21.3,23.6,-0.4,5.73,2.12,-0.8,28.0
2015-09-20 01:22:00,0.0,1.96890,0.00410,394.951,0.057,0.7512,0.0026,140.000,45.000,31676.02336,1.98390,398.606,37.123,45.067,45.000,0.00,0.09,-272.74,-272.80,-9,515,-943,21.2,23.1,-0.7,21.3,23.5,-0.4,5.73,1.85,-0.8,28.0
2015-09-20 01:23:00,0.0,1.97078,0.00629,394.957,0.048,0.7494,0.0054,140.001,45.000,31678.08192,1.98553,398.599,37.125,45.067,45.000,0.00,0.09,-272.74,-272.80,-9,516,-943,21.2,23.1,-0.8,21.3,23.4,-0.4,5.73,1.91,-0.8,28.0
2015-09-20 01:24:00,0.0,1.96697,0.00334,394.943,0.043,0.7526,0.0041,140.000,45.000,31678.95922,1.98215,398.605,37.124,45.067,45.000,0.00,0.09,-272.75,-272.81,-8,515,-943,21.1,23.1,-0.7,21.3,23.5,-0.4,5.73,2.10,-0.8,28.1
2015-09-20 01:25:00,0.0,1.96866,0.00297,394.959,0.043,0.7527,0.0035,140.000,45.000,31676.11069,1.98333,398.618,37.123,45.067,45.000,0.00,0.09,-272.74,-272.80,-9,515,-943,21.2,23.2,-0.7,21.3,23.5,-0.4,5.73,1.74,-0.8,28.1
2015-09-20 01:26:00,0.0,1.96854,0.00386,394.963,0.049,0.7558,0.0041,139.999,45.000,31674.08840,1.98392,398.642,37.125,45.067,45.000,0.00,0.09,-272.74,-272.80,-9,515,-943,21.2,23.2,-0.7,21.3,23.6,-0.3,5.73,2.11,-0.8,28.0
2015-09-20 01:27:00,0.0,1.96565,0.00329,394.948,0.038,0.7507,0.0031,140.000,45.000,31677.12740,1.98008,398.597,37.127,45.067,45.000,0.00,0.09,-272.74,-272.81,-8,515,-943,21.2,23.1,-0.7,21.4,23.5,-0.3,5.73,1.89,-0.8,28.0
2015-09-20 01:28:00,0.0,1.96518,0.00501,394.943,0.048,0.7576,0.0030,140.000,45.000,31676.25647,1.98047,398.628,37.127,45.067,45.000,0.00,0.09,-272.75,-272.80,-9,515,-943,21.2,23.3,-0.6,21.4,23.6,-0.3,5.73,1.87,-0.8,28.0
2015-09-20 01:29:00,0.0,1.96108,0.00273,394.886,0.048,0.7570,0.0030,139.999,45.000,31677.49246,1.97623,398.569,37.125,45.067,45.000,0.00,0.09,-272.74,-272.80,-9,516,-943,21.2,23.3,-0.6,21.4,23.6,-0.3,5.73,2.12,-0.8,28.0
2015-09-20 01:30:00,0.0,1.96143,0.00208,394.830,0.043,0.7571,0.0026,140.000,45.000,31678.76014,1.97635,398.511,37.125,45.067,45.000,0.00,0.09,-272.74,-272.80,-8,515,-943,21.2,23.3,-0.6,21.4,23.6,-0.3,5.73,1.74,-0.8,28.0
2015-09-20 01:31:00,0.0,1.96577,0.00225,394.854,0.042,0.7608,0.0027,140.002,45.000,31679.13037,1.98065,398.555,37.126,45.067,45.000,0.00,0.09,-272.75,-272.80,-9,515,-943,21.2,23.4,-0.5,21.3,23.7,-0.2,5.73,2.09,-0.8,28.0
2015-09-20 01:32:00,0.0,1.96496,0.00281,394.816,0.046,0.7605,0.0038,140.001,45.000,31678.41925,1.98019,398.515,37.144,45.067,45.000,0.00,0.09,-272.74,-272.81,-9,516,-943,21.2,23.3,-0.6,21.3,23.8,-0.2,5.73,1.91,-0.8,28.0
2015-09-20 01:33:00,0.0,1.96355,0.00232,394.784,0.033,0.7548,0.0029,140.000,45.000,31676.94064,1.97835,398.453,37.175,45.067,45.000,0.00,0.09,-272.74,-272.80,-8,515,-943,21.2,23.2,-0.6,21.4,23.6,-0.3,5.73,1.84,-0.8,28.1
2015-09-20 01:34:00,0.0,1.96444,0.00128,394.799,0.032,0.7593,0.0028,140.001,45.000,31677.66251,1.97950,398.490,37.188,45.067,45.000,0.00,0.09,-272.75,-272.81,-9,516,-943,21.2,23.3,-0.6,21.3,23.7,-0.3,5.73,2.13,-0.8,28.0
2015-09-20 01:35:00,0.0,1.96412,0.00141,394.814,0.026,0.7602,0.0021,140.000,45.000,31677.01606,1.97923,398.510,37.188,45.067,45.000,0.00,0.09,-272.74,-272.80,-9,516,-943,21.2,23.4,-0.5,21.4,23.7,-0.2,5.73,1.74,-0.8,28.0
2015-09-20 01:36:00,0.0,1.96290,0.00128,394.843,0.035,0.7622,0.0025,140.001,45.000,31678.30365,1.97804,398.551,37.185,45.067,45.000,0.00,0.09,-272.74,-272.79,-8,516,-943,21.2,23.4,-0.5,21.4,23.7,-0.2,5.73,2.07,-0.8,28.0
2015-09-20 01:37:00,0.0,1.96143,0.00059,394.946,0.033,0.7596,0.0021,140.001,45.000,31677.25203,1.97646,398.639,37.188,45.067,45.000,0.00,0.09,-272.74,-272.80,-9,515,-943,21.2,23.3,-0.6,21.4,23.7,-0.2,5.73,1.95,-0.8,28.1
2015-09-20 01:38:00,0.0,1.96106,0.00047,394.978,0.031,0.7590,0.0025,140.003,45.000,31678.23444,1.97606,398.671,37.188,45.067,45.000,0.00,0.09,-272.75,-272.80,-9,516,-943,21.2,23.3,-0.6,21.4,23.6,-0.2,5.73,1.82,-0.8,28.1
2015-09-20 01:39:00,0.0,1.96084,0.00051,394.964,0.027,0.7636,0.0018,140.000,45.000,31677.83208,1.97594,398.678,37.183,45.067,45.000,0.00,0.09,-272.74,-272.80,-8,515,-943,21.2,23.4,-0.6,21.4,23.8,-0.2,5.73,2.14,-0.8,28.1
2015-09-20 01:40:00,0.0,1.96049,0.00073,394.995,0.049,0.7625,0.0021,140.001,45.000,31678.12459,1.97557,398.707,37.175,45.067,45.000,0.00,0.09,-272.74,-272.81,-10,516,-943,21.2,23.4,-0.5,21.4,23.7,-0.2,5.73,1.76,-0.8,28.0
2015-09-20 01:41:00,0.0,1.96108,0.00044,394.970,0.038,0.7660,0.0025,139.999,45.000,31677.95577,1.97619,398.696,37.161,45.067,45.000,0.00,0.09,-272.75,-272.81,-9,516,-943,21.2,23.5,-0.5,21.3,23.8,-0.2,5.73,2.04,-0.8,28.1
2015-09-20 01:42:00,0.0,1.96209,0.00085,394.902,0.055,0.7712,0.0028,140.000,45.000,31678.04992,1.97725,398.656,37.152,45.067,45.000,0.00,0.09,-272.73,-272.81,-8,515,-943,21.2,23.7,-0.4,21.4,24.0,-0.1,5.73,1.98,-0.8,28.1
2015-09-20 01:43:00,0.0,1.96832,0.00191,394.719,0.044,0.7744,0.0017,140.001,45.000,31679.09484,1.98343,398.488,37.177,45.067,45.000,0.00,0.09,-272.74,-272.80,-10,515,-943,21.2,23.8,-0.3,21.4,24.1,-0.0,5.73,1.80,-0.8,28.1
2015-09-20 01:44:00,0.0,1.97625,0.00205,394.657,0.042,0.7780,0.0027,139.999,45.000,31679.89222,1.99148,398.441,37.186,45.067,45.000,0.00,0.09,-272.75,-272.81,-9,516,-943,21.2,23.9,-0.3,21.4,24.2,0.1,5.73,2.14,-0.8,28.1
2015-09-20 01:45:00,0.0,1.97677,0.00245,394.527,0.084,0.7791,0.0058,140.000,45.000,31678.29826,1.99234,398.320,37.172,45.067,45.000,0.00,0.09,-272.74,-272.80,-8,516,-943,21.2,23.9,-0.2,21.4,24.3,0.1,5.73,1.78,-0.8,28.1